Weather History for Rome Fiumicino, Italy

Change the Weather History Date:

Wednesday, March 19, 2014

  Actual Average Record
Temperature  
Mean Temperature 56 °F -  
Max Temperature 63 °F 63 °F 64 °F (1997)
Min Temperature 48 °F 45 °F 35 °F (2005)
Degree Days  
Heating Degree Days 8    
Growing Degree Days 6 (Base 50)    
Moisture  
Dew Point 51 °F    
Average Humidity 84    
Maximum Humidity 100    
Minimum Humidity 60    
Precipitation  
Precipitation 0.00 in 0.08 in - ()
Sea Level Pressure  
Sea Level Pressure 30.17 in    
Wind  
Wind Speed 5 mph ()    
Max Wind Speed 10 mph    
Max Gust Speed -    
Visibility 5.0 miles    
Events      
Averages and records for this station are not official NWS values.
T = Trace of Precipitation, MM = Missing Value Source: Averaged Metar Reports

Daily Weather History Graph

Daily Weather History Graph

Search for Another Location

Airport:

Trip Planner

Search our weather history database for the weather conditions in past years. The results will help you decide how hot, cold, wet, or windy it might be!

Date:

Astronomy

Mar. 19, 2014 Rise Set
Actual Time 6:16 AM CET 6:21 PM CET
Civil Twilight 5:48 AM CET 6:49 PM CET
Nautical Twilight 5:16 AM CET 7:22 PM CET
Astronomical Twilight 4:43 AM CET 7:55 PM CET
Moon 9:26 PM CET 7:29 AM CET
Length of Visible Light 13h 00m
Length of Day
12h 05m
Waning Gibbous, 92% of the Moon is Illuminated
Mar 19
Waning Gibbous
Mar 24
Last Quarter
Mar 30
New
Apr 7
First Quarter
Apr 15
Full

Hourly Weather History & Observations

Time (CET) Temp. Dew Point Humidity Pressure Visibility Wind Dir Wind Speed Gust Speed Precip Events Conditions
12:20 AM 57.2 °F 51.8 °F 82% 30.18 in 5.0 mi Variable 3.5 mph - N/A   Mostly Cloudy
12:50 AM 55.4 °F 51.8 °F 88% 30.18 in 5.0 mi SE 5.8 mph - N/A   Mostly Cloudy
1:00 AM 56 °F 52 °F 80% 30.20 in 5 mi SE 5.8 mph - -   Mist
1:20 AM 55.4 °F 51.8 °F 88% 30.18 in 5.0 mi ESE 5.8 mph - N/A   Mostly Cloudy
1:50 AM 55.4 °F 51.8 °F 88% 30.18 in 5.0 mi Variable 3.5 mph - N/A   Mostly Cloudy
2:20 AM 53.6 °F 51.8 °F 94% 30.18 in 5.0 mi East 3.5 mph - N/A   Mostly Cloudy
2:50 AM 53.6 °F 51.8 °F 94% 30.15 in 4.3 mi East 3.5 mph - N/A   Mostly Cloudy
3:20 AM 53.6 °F 53.6 °F 100% 30.15 in 3.7 mi Variable 3.5 mph - N/A   Mostly Cloudy
3:50 AM 53.6 °F 53.6 °F 100% 30.15 in 3.7 mi Variable 2.3 mph - N/A   Mostly Cloudy
4:00 AM 54 °F 53 °F 96% 30.17 in 3 mi East 3.5 mph - -   Mist
4:20 AM 53.6 °F 53.6 °F 100% 30.15 in 3.7 mi East 3.5 mph - N/A   Mostly Cloudy
4:50 AM 53.6 °F 53.6 °F 100% 30.15 in 3.7 mi ENE 3.5 mph - N/A   Mostly Cloudy
5:20 AM 53.6 °F 53.6 °F 100% 30.15 in 3.7 mi East 4.6 mph - N/A   Mostly Cloudy
5:50 AM 53.6 °F 53.6 °F 100% 30.15 in 3.7 mi Variable 3.5 mph - N/A   Mostly Cloudy
6:20 AM 53.6 °F 51.8 °F 94% 30.15 in 3.7 mi Variable 3.5 mph - N/A   Mostly Cloudy
6:50 AM 53.6 °F 51.8 °F 94% 30.15 in 4.3 mi East 6.9 mph - N/A   Mostly Cloudy
7:00 AM 53 °F 50 °F 87% 30.18 in 4 mi East 6.9 mph - -   Mist
7:20 AM 53.6 °F 50.0 °F 88% 30.18 in 3.7 mi East 5.8 mph - N/A   Mostly Cloudy
7:50 AM 53.6 °F 50.0 °F 88% 30.18 in 3.7 mi East 5.8 mph - N/A   Mostly Cloudy
8:20 AM 55.4 °F 51.8 °F 88% 30.18 in 4.3 mi ESE 5.8 mph - N/A   Mostly Cloudy
8:50 AM 59.0 °F 51.8 °F 77% 30.18 in 5.6 mi SE 9.2 mph - N/A   Mostly Cloudy
9:20 AM 59.0 °F 50.0 °F 72% 30.18 in 6.2 mi SSE 9.2 mph - N/A   Mostly Cloudy
9:50 AM 59.0 °F 50.0 °F 72% 30.18 in 6.2 mi SSE 9.2 mph - N/A   Mostly Cloudy
10:20 AM 60.8 °F 51.8 °F 72% 30.18 in 6.2 mi SSE 6.9 mph - N/A   Mostly Cloudy
10:50 AM 60.8 °F 51.8 °F 72% 30.21 in 6.2 mi Variable 5.8 mph - N/A   Mostly Cloudy
11:20 AM 60.8 °F 51.8 °F 72% 30.18 in 6.2 mi South 8.1 mph - N/A   Scattered Clouds
11:50 AM 62.6 °F 51.8 °F 68% 30.18 in 6.2 mi South 6.9 mph - N/A   Scattered Clouds
12:20 PM 62.6 °F 51.8 °F 68% 30.18 in 6.2 mi SW 6.9 mph - N/A   Scattered Clouds
12:50 PM 62.6 °F 51.8 °F 68% 30.18 in 6.2 mi South 8.1 mph - N/A   Scattered Clouds
1:00 PM 63 °F 53 °F 60% 30.18 in 6 mi SSW 9.2 mph - -   Mostly Cloudy
1:20 PM 62.6 °F 51.8 °F 68% 30.15 in 6.2 mi SSW 9.2 mph - N/A   Scattered Clouds
1:50 PM 62.6 °F 51.8 °F 68% 30.15 in 6.2 mi SW 10.4 mph - N/A   Partly Cloudy
2:20 PM 60.8 °F 51.8 °F 72% 30.15 in 6.2 mi West 9.2 mph - N/A   Partly Cloudy
2:50 PM 60.8 °F 51.8 °F 72% 30.15 in 6.2 mi West 8.1 mph - N/A   Partly Cloudy
3:20 PM 60.8 °F 51.8 °F 72% 30.15 in 6.2 mi West 6.9 mph - N/A   Partly Cloudy
3:50 PM 60.8 °F 51.8 °F 72% 30.15 in - West 8.1 mph - N/A   Clear
4:00 PM 61 °F 51 °F 62% 30.16 in 7 mi West 6.9 mph - -   Scattered Clouds
4:20 PM 60.8 °F 51.8 °F 72% 30.15 in - West 6.9 mph - N/A   Clear
4:50 PM 59.0 °F 51.8 °F 77% 30.12 in - West 6.9 mph - N/A   Clear
5:20 PM 59.0 °F 51.8 °F 77% 30.15 in - West 5.8 mph - N/A   Clear
5:50 PM 57.2 °F 51.8 °F 82% 30.15 in - WSW 5.8 mph - N/A   Clear
6:20 PM 57.2 °F 50.0 °F 77% 30.15 in - West 3.5 mph - N/A   Clear
6:50 PM 55.4 °F 51.8 °F 88% 30.15 in - West 2.3 mph - N/A   Clear
7:00 PM 56 °F 51 °F 79% 30.17 in 7 mi WNW 2.3 mph - -   Clear
7:20 PM 55.4 °F 51.8 °F 88% 30.15 in - WNW 2.3 mph - N/A   Clear
7:50 PM 53.6 °F 51.8 °F 94% 30.18 in - WNW 2.3 mph - N/A   Clear
8:20 PM 53.6 °F 50.0 °F 88% 30.18 in - North 2.3 mph - N/A   Clear
8:50 PM 53.6 °F 50.0 °F 88% 30.18 in - Calm Calm - N/A   Clear
9:20 PM 53.6 °F 50.0 °F 88% 30.18 in 5.0 mi Calm Calm - N/A   Unknown
9:50 PM 50.0 °F 48.2 °F 94% 30.18 in 5.0 mi Variable 1.2 mph - N/A   Unknown
10:00 PM 50 °F 49 °F 95% 30.21 in 5 mi NE 1.2 mph - -   Mist
10:20 PM 51.8 °F 50.0 °F 94% 30.21 in 4.3 mi Variable 3.5 mph - N/A   Unknown
10:50 PM 51.8 °F 51.8 °F 100% 30.21 in 4.3 mi Variable 3.5 mph - N/A   Unknown
11:20 PM 50.0 °F 50.0 °F 100% 30.21 in 4.3 mi East 3.5 mph - N/A   Unknown
11:50 PM 48.2 °F 48.2 °F 100% 30.21 in 4.3 mi Calm Calm - N/A   Unknown